This demonstration page uses our WeatherBlox Daily Observations layout. Learn more.

Left ArrowRight Arrow

Hourly Observations for May 5, 2020

Temp ( °F °C ) Dew Point ( °F °C ) Humidity (%) Winds ( mph kmh ) Pressure ( in mb ) Visibility ( mi km ) Precip ( " mm )
12:07 am 00:07 Cloudy with Mist and Fog 61 16.1 61 16.1 100 100 NW 7 11 29.79 1009 4 6 0.00 0.00
12:52 am 00:52 Cloudy 58 14.4 58 14.4 100 100 NW 13 20 29.83 1010 10 16 0.00 0.00
1:24 am 01:24 Cloudy 57 13.9 56 13.3 96 96 NW 10 17 29.84 1011 10 16 0.00 0.00
1:52 am 01:52 Cloudy 56 13.3 55 12.8 97 97 NW 13 20 29.85 1011 10 16 0.00 0.00
2:45 am 02:45 Cloudy 54 12.2 54 12.2 100 100 NW 15 24 29.88 1012 10 16 0.00 0.00
2:52 am 02:52 Cloudy 54 12.2 54 12.2 100 100 NW 13 20 29.87 1012 10 16 0.00 0.00
3:24 am 03:24 Cloudy 54 12.2 52 11.1 93 93 NW 13 20 29.90 1013 10 16 0.00 0.00
3:52 am 03:52 Cloudy 54 12.2 52 11.1 93 93 NW 12 19 29.91 1013 10 16 0.00 0.00
4:22 am 04:22 Cloudy 54 12.2 52 11.1 93 93 NW 14 22 29.93 1014 10 16 0.00 0.00
4:44 am 04:44 Cloudy 54 12.2 52 11.1 93 93 NW 12 19 29.94 1014 10 16 0.00 0.00
4:52 am 04:52 Cloudy 54 12.2 52 11.1 93 93 NW 10 17 29.93 1013 10 16 0.00 0.00
5:52 am 05:52 Cloudy 54 12.2 52 11.1 93 93 NW 15 24 29.94 1014 10 16 0.00 0.00
6:03 am 06:03 Cloudy 54 12.2 52 11.1 93 93 NW 14 22 29.97 1015 10 16 0.00 0.00
6:52 am 06:52 Cloudy 54 12.2 52 11.1 93 93 NW 18 30 29.96 1015 10 16 0.00 0.00
8:49 am 08:49 Partly Cloudy 54 12 50 10 88 88 NW 25 41 29.99 1016 10 16 0.00 0.00
8:52 am 08:52 Partly Cloudy 56 13.3 50 10 81 81 NW 24 39 29.98 1015 10 16 0.00 0.00
9:52 am 09:52 Sunny 59 15 47 8.3 64 64 NNW 23 37 30.01 1016 10 16 0.00 0.00
10:52 am 10:52 Sunny 62 16.7 46 7.8 56 56 NW 18 30 30.02 1017 N/A 0.00 0.00
11:52 am 11:52 Sunny 65 18.3 45 7.2 49 49 NNW 18 30 30.03 1017 10 16 0.00 0.00
12:52 pm 12:52 Sunny 66 18.9 45 7.2 47 47 NW 18 30 30.04 1017 10 16 0.00 0.00
1:52 pm 13:52 Sunny 68 20 43 6.1 40 40 NW 16 26 30.03 1017 10 16 0.00 0.00
2:52 pm 14:52 Sunny 68 20 43 6.1 40 40 NW 14 22 30.01 1016 10 16 0.00 0.00
3:52 pm 15:52 Sunny 68 20 39 3.9 35 35 WNW 20 31 30.00 1016 10 16 0.00 0.00
4:52 pm 16:52 Sunny 69 20.6 40 4.4 35 35 WNW 21 33 29.99 1016 10 16 0.00 0.00
5:52 pm 17:52 Sunny 68 20 40 4.4 36 36 WNW 16 26 30.00 1016 10 16 0.00 0.00
6:52 pm 18:52 Sunny 67 19.4 39 3.9 36 36 WNW 15 24 30.00 1016 10 16 0.00 0.00
7:52 pm 19:52 Sunny 64 17.8 40 4.4 41 41 WNW 6 9 30.02 1017 10 16 0.00 0.00
8:52 pm 20:52 Clear 61 16.1 41 5 48 48 WNW 7 11 30.04 1017 10 16 0.00 0.00
9:52 pm 21:52 Clear 56 13.3 42 5.6 60 60 NW 8 13 30.08 1019 10 16 0.00 0.00
10:52 pm 22:52 Clear 54 12.2 40 4.4 59 59 NNW 10 17 30.10 1019 10 16 0.00 0.00
11:52 pm 23:52 Clear 53 11.7 39 3.9 59 59 NW 9 15 30.10 1019 10 16 0.00 0.00

Powered by AerisWeather